Location: Hawks Ness
(60.2333°N, 1.1667°W)
Time: 02:22:29
(UTC+00:00)

Cosmos 2369 Rocket - Pass Details

Date: 22 October 2019
Orbit: 830 x 851 km, 71.0° (Epoch: 13 November)

Event Time Altitude Azimuth Distance (km) Brightness Sun altitude
Exits shadow 04:20:51 11° 320° (NW) 2,418 4.3 -20.4°
Maximum altitude 04:26:24 79° 47° (NE) 854 2.2 -19.7°
Drops below altitude 10° 04:32:00 10° 135° (SE) 2,439 5.0 -19.0°
Sets 04:34:26 0° 137° (SE) 3,370 5.8 -18.7°
